Preview of NWS' New Version of Forecast
This preview is not operational and should not be used for support decisions.

Regional Weather Roundup (RWR)

Issued by National Weather Service (NWS)

                            
000
ASUS45 KABQ 162310
RWRNM 
NEW MEXICO REGIONAL WEATHER ROUNDUP
NATIONAL WEATHER SERVICE ALBUQUERQUE NM
500 PM MDT SUN JUN 16 2019

NOTE: "FAIR" MEANS FEW OR NO CLOUDS BELOW 12,000 FEET AGL WITH NO
       SIGNIFICANT WEATHER OR OBSTRUCTIONS TO VISION.

      THIS PRODUCT IS RELEASED AS TWO VERSIONS.  ONE VERSION NEAR
      THE TOP OF THE HOUR CONTAINING PRELIMINARY DATA FROM ALBUQUERQUE
      AND OTHER STATIONS.  A FINAL VERSION WITH ADDITIONAL DATA IS 
      ISSUED ABOUT 10 MINUTES AFTER THE HOUR.
 
NMZ501-503-504-510>518-170000-
NORTHWEST PLATEAU/NORTHCENTRAL MOUNTAINS
  
CITY           SKY/WX    TMP DP  RH WIND       PRES   REMARKS
FARMINGTON     FAIR      78  39  24 W17G29    29.98R                  
LOS ALAMOS       N/A     74  37  26 W7        30.13S                  
SANTA FE       FAIR      81  33  17 NW12      30.04F                  
TAOS           PTSUNNY   76  37  24 VRB3      30.09F                  
ANGEL FIRE       N/A     63  42  46 S12       30.19S                  

$$
NMZ402-403-502-505>509-170000-
WESTCENTRAL MOUNTAINS/SOUTHWEST MOUNTAINS
  
CITY           SKY/WX    TMP DP  RH WIND       PRES   REMARKS
GALLUP         FAIR      82  32  16 NW12      30.03F                  
GRANTS         FAIR      80  33  17 N13G18    30.07F                  
SILVER CITY    FAIR      88  25  10 CALM      29.99F                  

$$
NMZ407-409-411-412-170000-
SOUTHERN DESERTS
  
CITY           SKY/WX    TMP DP  RH WIND       PRES   REMARKS
DEMING         FAIR      94  22   7 W16G24    29.91F                  
LAS CRUCES     FAIR      93  29  10 CALM      29.93F                  
HOLLOMAN AFB   FAIR      93  35  13 CALM      29.90F                  
ALAMOGORDO     FAIR      93  32  11 S10       29.90F                  
T OR C         FAIR      92  28  10 SE13G21   29.92F                  

$$
NMZ519>523-170000-
CENTRAL VALLEYS/CENTRAL HIGHLANDS
  
CITY           SKY/WX    TMP DP  RH WIND       PRES   REMARKS
ALBUQUERQUE    PTSUNNY   84  38  19 N15G22    29.98F                  
DOUBLE EAGLE   PTSUNNY   81  37  21 NW13G20   30.03S                  
MORIARTY ARPT  FAIR      83  33  16 CALM      30.04F                  
CLINES CORNERS FAIR      79  38  22 SW15G21   30.10F                  
BELEN          FAIR      86  32  14 SW10G16   29.96F                  
SOCORRO        FAIR      86  33  14 SW17G23   29.95S                  

$$
NMZ524>526-539-540-170000-
SOUTHCENTRAL MOUNTAINS
  
CITY           SKY/WX    TMP DP  RH WIND       PRES   REMARKS
RUIDOSO        PTSUNNY   73  41  31 S13       30.12F                  

$$
NMZ527>531-170000-
NORTHEAST HIGHLANDS/NORTHEAST PLAINS
  
CITY           SKY/WX    TMP DP  RH WIND       PRES   REMARKS
LAS VEGAS      FAIR      76  42  29 SE18G26   30.10S                  
RATON          FAIR      70  47  43 CALM      30.06F                  
CLAYTON        FAIR      75  52  44 VRB7      30.01F                  

$$
NMZ532>537-170000-
EASTCENTRAL PLAINS
  
CITY           SKY/WX    TMP DP  RH WIND       PRES   REMARKS
SANTA ROSA     FAIR      87  40  19 E6        29.95F                  
TUCUMCARI      FAIR      85  50  29 E9        29.93F                  
CANNON AFB     FAIR      83  51  32 E9        29.97F                  
CLOVIS AIRPORT FAIR      81  52  36 NE9       29.98F                  

$$
NMZ028-029-538-170000-
SOUTHEAST PLAINS
  
CITY           SKY/WX    TMP DP  RH WIND       PRES   REMARKS
ROSWELL        FAIR      92  47  21 SE7       29.89F                  
ARTESIA        FAIR      90  52  27 CALM      29.90F                  
CARLSBAD       FAIR      92  50  23 NE7       29.86F                  
HOBBS          SUNNY     88  48  25 NE9       29.92F                  


$$